[[{"header":{"parameterUnit":"m.s-1","parameterCategory":2,"la1":30.2992,"la2":30.254,"lo1":-89.0895,"lo2":-89.0443,"dy":0.0025,"dx":0.0025,"nx":19,"ny":19,"refTime":"2026-05-18T09:00:00:Z","depth":"0","parameterNumber":2,"parameterNumberName":"U-component_of_CURRENTS"},"data":[0,0,0,0.3465,0.3469,0.3606,0.3607,0.3671,0.3672,0,0,0,0,0,0,0,0,0,0,0,0.3401,0.3402,0.3465,0.3469,0.3606,0.3607,0.3671,0.3672,0,0,0,0,0,0,0,0,0,0,0,0.3401,0.3402,0.3403,0.347,0.3606,0.3607,0.3671,0.3592,0,0,0,0,0,0,0,0,0,0,0.3471,0.3427,0.3402,0.3403,0.347,0.3606,0.3607,0.359,0.3597,0.3581,0,0.3605,0,0.365,0.3675,0.3675,0,0,0,0.3457,0.3421,0.3469,0.3403,0.3472,0.3606,0.3541,0.3595,0.3603,0.359,0.3606,0.361,0.3652,0.3675,0.3675,0.3752,0.3753,0,0,0.345,0.3415,0.3463,0.3474,0.3509,0.3537,0.3545,0.3601,0.3601,0.3607,0.3613,0.3653,0.3675,0.3676,0.3752,0.3753,0,0,0,0.3436,0.3409,0.3457,0.347,0.351,0.3541,0.3551,0.3598,0.3618,0.3614,0.3653,0.3675,0.3676,0.3751,0.3752,0.3911,0,0,0,0.343,0.3403,0.3453,0.3433,0.351,0.3571,0.3547,0.3613,0.3622,0.3653,0.3675,0.3676,0.3751,0.3752,0.3905,0.3945,0,0,0,0.3395,0.3399,0.3418,0.3431,0.35,0.3572,0.3595,0.3617,0.3646,0.3675,0.3677,0.375,0.3752,0.39,0.3937,0.4013,0,0,0,0.335,0.3371,0.3417,0.3454,0.3498,0.3573,0.3595,0.365,0.3675,0.3676,0.3751,0.3752,0.3899,0.3932,0.4008,0.3998,0.4022,0,0,0.335,0.3369,0.3394,0.344,0.3518,0.3553,0.3643,0.3689,0.3688,0.3721,0.3724,0.3907,0.3937,0.4012,0.407,0.4092,0,0,0,0.3377,0.3393,0.3423,0.3485,0.355,0.3659,0.3693,0.3743,0.3842,0.3715,0.3888,0.39,0.3944,0.3926,0.3943,0.3989,0.3758,0.3758,0.3758,0.3302,0.3373,0.343,0.353,0.3589,0.372,0.3825,0.3898,0.3873,0.3958,0.4018,0.4159,0.4143,0.4156,0.4204,0.4016,0.4017,0.4017,0.4018,0.3319,0.3376,0.346,0.3546,0.3674,0.3758,0.3955,0.4024,0.4197,0.4142,0.4178,0.4077,0.4184,0.4228,0.4028,0.4026,0.4025,0.4024,0.4023,0.33,0.3348,0.3405,0.3531,0.3662,0.3803,0.3979,0.4155,0.4296,0.4401,0.4344,0.434,0.4388,0.4418,0.4419,0.4419,0.442,0.442,0.442,0.3279,0.3346,0.3381,0.3514,0.3566,0.3721,0.4005,0.4157,0.4389,0.4488,0.4487,0.4439,0.428,0.4274,0.4429,0.4427,0.4426,0.4425,0.4425,0.3294,0.3294,0.3324,0.3357,0.3471,0.353,0.3826,0.4135,0.4356,0.446,0.4644,0.4533,0.4472,0.4455,0.4452,0.4643,0.4643,0.4643,0.4643,0.3256,0.3279,0.3233,0.3222,0.3291,0.3421,0.3556,0.392,0.4424,0.4669,0.4764,0.4692,0.4681,0.4627,0.4606,0.4602,0.4828,0.4829,0.4829,0.3236,0.3216,0.3134,0.3116,0.3162,0.3265,0.332,0.3631,0.4446,0.4842,0.4844,0.4836,0.4732,0.471,0.4613,0.4581,0.4568,0,0]},{"header":{"parameterUnit":"m.s-1","parameterCategory":2,"la1":30.2992,"la2":30.254,"lo1":-89.0895,"lo2":-89.0443,"dy":0.0025,"dx":0.0025,"nx":19,"ny":19,"refTime":"2026-05-18T09:00:00:Z","depth":"0","parameterNumber":3,"parameterNumberName":"V-component_of_CURRENTS"},"data":[0,0,0,-0.0253,-0.0255,-0.0353,-0.0354,-0.0496,-0.0498,0,0,0,0,0,0,0,0,0,0,0,-0.0218,-0.0218,-0.0253,-0.0255,-0.0353,-0.0354,-0.0496,-0.0498,0,0,0,0,0,0,0,0,0,0,0,-0.0217,-0.0218,-0.0218,-0.0255,-0.0353,-0.0354,-0.0496,-0.042,0,0,0,0,0,0,0,0,0,0,-0.0324,-0.028,-0.0218,-0.0218,-0.0255,-0.0353,-0.0354,-0.0417,-0.0425,-0.0452,0,-0.046,0,-0.0478,-0.0506,-0.0507,0,0,0,-0.0267,-0.0273,-0.0302,-0.0218,-0.0256,-0.0353,-0.0312,-0.0421,-0.0431,-0.0464,-0.0462,-0.0467,-0.048,-0.0507,-0.0508,-0.0521,-0.052,0,0,-0.0262,-0.0237,-0.0295,-0.0307,-0.0273,-0.0309,-0.0315,-0.0427,-0.0432,-0.0463,-0.0471,-0.0483,-0.0508,-0.0509,-0.0522,-0.0521,0,0,0,-0.0238,-0.0233,-0.026,-0.0302,-0.0316,-0.0312,-0.0319,-0.0427,-0.0436,-0.0472,-0.0484,-0.0509,-0.051,-0.0523,-0.0522,-0.0231,0,0,0,-0.0235,-0.0219,-0.0257,-0.0244,-0.0313,-0.0369,-0.0316,-0.0428,-0.0442,-0.0484,-0.0509,-0.0512,-0.0524,-0.0522,-0.0241,0.0012,0,0,0,-0.0215,-0.0217,-0.0226,-0.0242,-0.028,-0.0368,-0.0384,-0.0432,-0.0449,-0.0507,-0.0512,-0.0525,-0.0523,-0.025,-0.0008,0.0241,0,0,0,-0.0191,-0.0167,-0.0225,-0.0206,-0.0279,-0.0281,-0.0384,-0.0416,-0.0456,-0.0509,-0.0524,-0.0522,-0.0253,-0.0021,0.0227,0.0362,0.0438,0,0,-0.0139,-0.016,-0.0148,-0.0201,-0.0163,-0.0269,-0.0204,-0.0317,-0.0435,-0.0493,-0.0494,-0.0238,-0.001,0.0238,0.0475,0.055,0,0,0,-0.0117,-0.009,-0.0098,-0.0092,-0.0131,-0.0063,-0.0204,-0.022,-0.0246,-0.0448,-0.028,-0.0143,0.0005,0.0052,0.011,-0.0173,-0.0513,-0.0513,-0.0513,0.0032,0.0007,0.0086,0.0076,0.0083,0.0057,0.0132,0.0087,-0.0121,-0.0077,0.0058,0.0412,0.0457,0.0505,0.0207,-0.0053,-0.0052,-0.0052,-0.0051,0.023,0.0364,0.03,0.0388,0.0415,0.0481,0.0502,0.0432,0.0573,0.0308,0.0432,0.0311,0.0588,0.0246,-0.0033,-0.0036,-0.0038,-0.004,-0.0041,0.0462,0.0556,0.0549,0.0706,0.0849,0.0835,0.1125,0.1059,0.0937,0.107,0.1072,0.1066,0.0808,0.1087,0.109,0.1092,0.1094,0.1095,0.1097,0.0808,0.0806,0.0964,0.1077,0.1196,0.1406,0.1538,0.1659,0.1672,0.1507,0.1505,0.0904,0.0761,0.0764,0.1131,0.1125,0.112,0.1117,0.1115,0.1237,0.1201,0.141,0.1525,0.1777,0.2061,0.2139,0.2346,0.2407,0.2443,0.1641,0.1717,0.1675,0.1621,0.1643,0.2217,0.2217,0.2217,0.2217,0.1542,0.154,0.1773,0.1951,0.2234,0.2366,0.2806,0.2887,0.2498,0.2203,0.1931,0.1589,0.1557,0.1481,0.1431,0.1435,0.1944,0.1943,0.1942,0.1832,0.1832,0.2019,0.2106,0.2387,0.2689,0.3063,0.3232,0.2537,0.1889,0.1528,0.154,0.0972,0.0944,0.0747,0.07,0.0676,0,0]}],[{"header":{"parameterUnit":"m.s-1","parameterCategory":2,"la1":30.2992,"la2":30.254,"lo1":-89.0895,"lo2":-89.0443,"dy":0.0025,"dx":0.0025,"nx":19,"ny":19,"refTime":"2026-05-18T09:00:00:Z","depth":"2","parameterNumber":2,"parameterNumberName":"U-component_of_CURRENTS"},"data":[0,0,0,0.2995,0.2998,0.3137,0.3138,0.3288,0.3289,0,0,0,0,0,0,0,0,0,0,0,0.293,0.2931,0.2995,0.2999,0.3137,0.3138,0.3287,0.3289,0,0,0,0,0,0,0,0,0,0,0,0.293,0.2931,0.2931,0.2999,0.3137,0.3138,0.3287,0.3189,0,0,0,0,0,0,0,0,0,0,0.3057,0.2997,0.2931,0.2932,0.3,0.3137,0.3138,0.3185,0.3195,0.3217,0,0.323,0,0.3271,0.3298,0.3299,0,0,0,0.2998,0.2988,0.3034,0.2932,0.3001,0.3137,0.3075,0.3191,0.3202,0.323,0.3232,0.3239,0.3273,0.3299,0.33,0.3524,0.3525,0,0,0.299,0.2952,0.3025,0.3041,0.3027,0.307,0.3079,0.3198,0.32,0.3233,0.3243,0.3276,0.33,0.3301,0.3522,0.3524,0,0,0,0.2969,0.2946,0.2989,0.3034,0.3066,0.3074,0.3084,0.3195,0.3211,0.3245,0.3278,0.3301,0.3303,0.3521,0.3523,0.3602,0,0,0,0.2964,0.2935,0.2985,0.2964,0.3064,0.3136,0.3078,0.3202,0.3218,0.3277,0.3301,0.3304,0.3519,0.3522,0.3596,0.365,0,0,0,0.2926,0.2931,0.2945,0.2962,0.3026,0.3135,0.3159,0.3207,0.3238,0.3299,0.3304,0.3518,0.3522,0.3591,0.3642,0.3717,0,0,0,0.2886,0.2912,0.2943,0.2988,0.3024,0.317,0.3158,0.329,0.3355,0.3302,0.352,0.3523,0.359,0.3636,0.3711,0.3511,0.3521,0,0,0.2901,0.2912,0.2943,0.2975,0.3166,0.3151,0.33,0.3387,0.3407,0.3474,0.348,0.3598,0.3641,0.3715,0.3704,0.3706,0,0,0,0.2937,0.2955,0.3034,0.3121,0.3242,0.3366,0.3415,0.3465,0.358,0.3459,0.3644,0.367,0.3713,0.3583,0.3587,0.3539,0.3538,0.3538,0.3538,0.2922,0.2992,0.3099,0.3214,0.3314,0.3507,0.361,0.3671,0.3661,0.3747,0.3767,0.3926,0.379,0.379,0.3794,0.3795,0.3795,0.3795,0.3796,0.2999,0.3042,0.3134,0.3263,0.3414,0.3518,0.3726,0.379,0.3952,0.3901,0.3937,0.3714,0.3798,0.3803,0.3801,0.38,0.38,0.3799,0.3799,0.2987,0.302,0.3078,0.3237,0.3376,0.3554,0.3757,0.3937,0.4027,0.4115,0.3961,0.3956,0.3958,0.4126,0.4127,0.4127,0.4128,0.4128,0.4128,0.2974,0.3028,0.3083,0.3228,0.3294,0.3509,0.3816,0.3954,0.4063,0.4062,0.406,0.4038,0.4027,0.398,0.4138,0.4136,0.4135,0.4134,0.4133,0.294,0.2959,0.3045,0.3099,0.3312,0.3344,0.3671,0.382,0.4012,0.3975,0.4023,0.4022,0.3981,0.3973,0.3925,0.4061,0.4061,0.4061,0.4061,0.2894,0.2919,0.2992,0.3051,0.3218,0.3287,0.3253,0.335,0.3577,0.3641,0.3658,0.3499,0.3512,0.3435,0.344,0.3378,0.3372,0.337,0.3369,0.2865,0.2906,0.289,0.2975,0.312,0.3147,0.2866,0.2719,0.2997,0.3339,0.3515,0.4019,0.3827,0.383,0.3742,0.374,0.3651,0,0]},{"header":{"parameterUnit":"m.s-1","parameterCategory":2,"la1":30.2992,"la2":30.254,"lo1":-89.0895,"lo2":-89.0443,"dy":0.0025,"dx":0.0025,"nx":19,"ny":19,"refTime":"2026-05-18T09:00:00:Z","depth":"2","parameterNumber":3,"parameterNumberName":"V-component_of_CURRENTS"},"data":[0,0,0,0.0145,0.0144,0.0078,0.0077,-0.0094,-0.0095,0,0,0,0,0,0,0,0,0,0,0,0.0174,0.0175,0.0145,0.0144,0.0078,0.0077,-0.0094,-0.0095,0,0,0,0,0,0,0,0,0,0,0,0.0174,0.0175,0.0175,0.0144,0.0078,0.0077,-0.0093,-0.0026,0,0,0,0,0,0,0,0,0,0,0.0047,0.009,0.0175,0.0175,0.0144,0.0078,0.0077,-0.0022,-0.0031,-0.0083,0,-0.0073,0,-0.0086,-0.0107,-0.0108,0,0,0,0.0125,0.0097,0.0085,0.0175,0.0143,0.0078,0.0102,-0.0026,-0.0036,-0.0094,-0.0075,-0.0081,-0.0088,-0.0108,-0.0109,-0.0208,-0.0208,0,0,0.0129,0.0147,0.0092,0.008,0.015,0.0105,0.0101,-0.0031,-0.0037,-0.0076,-0.0085,-0.0091,-0.011,-0.0111,-0.0209,-0.0208,0,0,0,0.0152,0.015,0.0142,0.0087,0.0083,0.0103,0.0098,-0.0031,-0.0031,-0.0087,-0.0093,-0.011,-0.0113,-0.0209,-0.0209,-0.0035,0,0,0,0.0153,0.0164,0.0145,0.0152,0.0087,0.0036,0.0101,-0.0021,-0.0037,-0.0092,-0.0111,-0.0114,-0.0209,-0.0209,-0.004,0.0068,0,0,0,0.0173,0.0165,0.0168,0.0153,0.0133,0.0038,0.003,-0.0025,-0.0041,-0.0108,-0.0115,-0.0209,-0.0209,-0.0044,0.0058,0.0095,0,0,0,0.0179,0.0227,0.0168,0.0221,0.0134,0.0124,0.0031,-0.0035,-0.009,-0.0111,-0.0209,-0.0209,-0.0046,0.0051,0.0089,0.0092,0.0117,0,0,0.0252,0.0236,0.0272,0.0219,0.021,0.0131,0.0147,0.0007,-0.0097,-0.0176,-0.0178,-0.0038,0.0057,0.0094,0.0122,0.0148,0,0,0,0.0304,0.0322,0.0304,0.0295,0.0252,0.0229,0.0111,0.0066,-0.0021,-0.0122,-0.0076,-0.0022,-0.0004,-0.0016,0.0003,-0.0206,-0.0206,-0.0206,-0.0206,0.0388,0.0381,0.0414,0.039,0.0376,0.0279,0.0268,0.0187,0.0058,0.004,0.009,0.0203,0.0191,0.0206,0.0037,0.0038,0.0039,0.0039,0.0039,0.0485,0.0515,0.0507,0.0541,0.0502,0.0514,0.0448,0.0367,0.0336,0.0221,0.0227,0.0132,0.0238,0.0052,0.005,0.0048,0.0047,0.0046,0.0045,0.0522,0.054,0.0582,0.0651,0.0703,0.0667,0.0749,0.0661,0.0508,0.0526,0.042,0.0416,0.0325,0.0491,0.0492,0.0493,0.0493,0.0494,0.0494,0.0537,0.0582,0.0649,0.0749,0.0825,0.093,0.093,0.0905,0.0761,0.0622,0.062,0.0354,0.0339,0.0348,0.0504,0.0502,0.0501,0.05,0.0499,0.0508,0.0567,0.0688,0.0776,0.0985,0.1134,0.1163,0.1079,0.1011,0.091,0.0648,0.0641,0.058,0.056,0.0571,0.0777,0.0777,0.0777,0.0777,0.0475,0.0514,0.0671,0.0825,0.1044,0.12,0.1307,0.124,0.1002,0.0856,0.0852,0.0759,0.0746,0.0686,0.0663,0.0672,0.0905,0.0905,0.0905,0.0396,0.0495,0.0567,0.0776,0.1026,0.1258,0.1349,0.1346,0.1062,0.0911,0.0881,0.0784,0.063,0.0616,0.0501,0.0475,0.0479,0,0]}],[{"header":{"parameterUnit":"m.s-1","parameterCategory":2,"la1":30.2992,"la2":30.254,"lo1":-89.0895,"lo2":-89.0443,"dy":0.0025,"dx":0.0025,"nx":19,"ny":19,"refTime":"2026-05-18T09:00:00:Z","depth":"4","parameterNumber":2,"parameterNumberName":"U-component_of_CURRENTS"},"data":[0,0,0,0.1669,0.1673,0.185,0.1851,0.2043,0.2045,0,0,0,0,0,0,0,0,0,0,0,0.162,0.1621,0.1669,0.1673,0.185,0.1851,0.2043,0.2045,0,0,0,0,0,0,0,0,0,0,0,0.1619,0.1621,0.1623,0.1674,0.185,0.1851,0.2043,0.1917,0,0,0,0,0,0,0,0,0,0,0.175,0.1698,0.1621,0.1623,0.1675,0.185,0.1851,0.1912,0.1925,0.1953,0,0.1997,0,0.2021,0.2057,0.2058,0,0,0,0.1673,0.1687,0.1745,0.1623,0.1676,0.185,0.177,0.192,0.1935,0.1971,0.2,0.2007,0.2024,0.2058,0.2059,0.2239,0.224,0,0,0.1664,0.1639,0.1735,0.1755,0.1745,0.1765,0.1776,0.1929,0.1947,0.2001,0.2012,0.2028,0.2059,0.2061,0.2239,0.2239,0,0,0,0.1635,0.1632,0.1688,0.1747,0.178,0.177,0.1783,0.194,0.1963,0.2014,0.203,0.206,0.2063,0.2238,0.2239,0.2388,0,0,0,0.1629,0.1616,0.1683,0.1669,0.1778,0.1864,0.179,0.1953,0.197,0.2029,0.206,0.2064,0.2237,0.2239,0.2383,0.2386,0,0,0,0.1608,0.1613,0.1643,0.1667,0.1744,0.1862,0.1893,0.1957,0.198,0.2058,0.2065,0.2237,0.2238,0.2378,0.2379,0.243,0,0,0,0.1563,0.1601,0.1643,0.1692,0.1742,0.1844,0.1892,0.1976,0.2041,0.2061,0.2237,0.2239,0.2376,0.2375,0.2425,0.2097,0,0,0,0.1575,0.1602,0.1629,0.167,0.1754,0.1818,0.1956,0.2062,0.2074,0.2183,0.2188,0.2385,0.2379,0.2429,0.2187,0,0,0,0,0.1608,0.1639,0.1667,0.1737,0.1813,0.1941,0.2043,0.2118,0.2261,0.2122,0.2373,0.2362,0.239,0.2186,0.2246,0.2246,0.2246,0.2246,0.2245,0.1583,0.164,0.1704,0.18,0.1885,0.2047,0.2168,0.2291,0.2318,0.2404,0.248,0.2601,0.2392,0.2502,0.2503,0.2504,0.2504,0.2505,0.2505,0.16,0.1638,0.1754,0.1848,0.1996,0.2148,0.2352,0.2431,0.2618,0.2593,0.2616,0.235,0.252,0.2517,0.2515,0.2513,0.2512,0.2511,0.251,0.1571,0.1599,0.1694,0.185,0.205,0.2237,0.2405,0.2575,0.2695,0.2774,0.2535,0.2672,0.2664,0.2808,0.2808,0.2809,0.2809,0.2809,0.2809,0.149,0.1583,0.1655,0.1852,0.1968,0.2165,0.2436,0.2529,0.2689,0.2611,0.2806,0.2701,0.2691,0.2678,0.2814,0.2813,0.2812,0.2812,0.2812,0.1392,0.1455,0.1541,0.1636,0.1863,0.1987,0.2263,0.239,0.2467,0.2472,0.2517,0.253,0.2426,0.2423,0.2397,0.2454,0.245,0.2446,0,0.1284,0.1336,0.1402,0.149,0.1604,0.1841,0.1882,0.205,0.2223,0.2146,0.246,0.2504,0.2513,0.2387,0.2378,0.234,0,0,0,0.1164,0.1223,0.1213,0.1353,0.1466,0.1642,0.1881,0.1875,0.22,0.2205,0.2352,0.2377,0.2625,0.2827,0.2698,0.2686,0.2658,0,0]},{"header":{"parameterUnit":"m.s-1","parameterCategory":2,"la1":30.2992,"la2":30.254,"lo1":-89.0895,"lo2":-89.0443,"dy":0.0025,"dx":0.0025,"nx":19,"ny":19,"refTime":"2026-05-18T09:00:00:Z","depth":"4","parameterNumber":3,"parameterNumberName":"V-component_of_CURRENTS"},"data":[0,0,0,0.0328,0.0328,0.0318,0.0318,0.0256,0.0256,0,0,0,0,0,0,0,0,0,0,0,0.034,0.034,0.0328,0.0328,0.0318,0.0318,0.0256,0.0256,0,0,0,0,0,0,0,0,0,0,0,0.034,0.034,0.034,0.0328,0.0318,0.0318,0.0257,0.0277,0,0,0,0,0,0,0,0,0,0,0.0294,0.0312,0.034,0.034,0.0328,0.0318,0.0318,0.0279,0.0276,0.0246,0,0.0249,0,0.0244,0.025,0.025,0,0,0,0.0332,0.0315,0.0307,0.034,0.0328,0.0318,0.0324,0.0278,0.0274,0.0242,0.0248,0.0246,0.0243,0.0249,0.0249,0.0239,0.0239,0,0,0.0333,0.034,0.031,0.0305,0.0329,0.0324,0.0323,0.0276,0.0276,0.0248,0.0244,0.0242,0.0249,0.0248,0.0238,0.0239,0,0,0,0.0332,0.034,0.0335,0.0308,0.0306,0.0323,0.0323,0.0279,0.0276,0.0244,0.0241,0.0248,0.0247,0.0238,0.0238,0.0271,0,0,0,0.0332,0.0339,0.0335,0.034,0.0307,0.0299,0.0326,0.0279,0.0274,0.0241,0.0248,0.0247,0.0237,0.0238,0.0269,0.0268,0,0,0,0.034,0.034,0.034,0.034,0.0333,0.0299,0.0295,0.0279,0.0271,0.025,0.0246,0.0237,0.0238,0.0267,0.0265,0.0207,0,0,0,0.0346,0.0375,0.034,0.0378,0.0333,0.0367,0.0295,0.0318,0.0313,0.0248,0.0237,0.0238,0.0266,0.0264,0.0207,0.0296,0,0,0,0.0392,0.0381,0.0407,0.0376,0.0433,0.0369,0.0393,0.0352,0.0314,0.0248,0.0248,0.027,0.0265,0.0207,0.0368,0,0,0,0,0.043,0.0442,0.046,0.0476,0.0483,0.0454,0.0418,0.0376,0.0329,0.0312,0.0285,0.0281,0.0243,0.0297,0.0244,0.0244,0.0244,0.0244,0.0244,0.0482,0.0494,0.0534,0.054,0.0555,0.0515,0.0474,0.0402,0.0378,0.0364,0.032,0.0316,0.038,0.0342,0.0342,0.0343,0.0343,0.0343,0.0343,0.0527,0.0515,0.0554,0.0593,0.0573,0.0577,0.0492,0.0451,0.0352,0.0357,0.0318,0.0346,0.0347,0.0346,0.0345,0.0345,0.0345,0.0344,0.0344,0.0499,0.0486,0.0536,0.0575,0.06,0.0587,0.0548,0.0469,0.0378,0.0341,0.0356,0.0311,0.0289,0.0318,0.0317,0.0317,0.0317,0.0317,0.0317,0.0409,0.0457,0.0491,0.0546,0.0591,0.0613,0.0566,0.0516,0.0419,0.0389,0.0342,0.0306,0.0307,0.0286,0.0313,0.0314,0.0314,0.0315,0.0315,0.0328,0.0354,0.0422,0.0478,0.0587,0.0622,0.0601,0.0549,0.0465,0.0407,0.0387,0.0384,0.0359,0.0358,0.0338,0.0381,0.0382,0.0383,0,0.026,0.0275,0.04,0.0506,0.0585,0.0639,0.0631,0.0596,0.0477,0.0476,0.0414,0.0392,0.039,0.0365,0.0365,0.0345,0,0,0,0.0228,0.0286,0.0383,0.051,0.0623,0.0645,0.0642,0.0627,0.0505,0.0502,0.0413,0.0405,0.0419,0.0303,0.0257,0.0258,0.0221,0,0]}]]